NAVSTAR 22 (USA 66) 1 20959U 90103A 10246.32844418 .00000049 00000-0 10000-3 0 8339 2 20959 054.8877 265.1275 0128127 305.3554 053.5145 02.00565595144795 NAVSTAR 23 (USA 71) 1 21552U 91047A 10246.19093306 .00000034 00000-0 10000-3 0 8158 2 21552 054.3653 203.1825 0057074 334.4562 025.2076 02.00431763140377 NAVSTAR 26 (USA 83) 1 22014U 92039A 10246.12759513 -.00000059 00000-0 10000-3 0 7254 2 22014 056.7145 324.1399 0195966 063.6361 298.4181 02.00568169126527 NAVSTAR 27 (USA 84) 1 22108U 92058A 10245.73065955 -.00000052 00000-0 10000-3 0 6190 2 22108 056.1036 017.2917 0217238 280.6254 076.9506 02.00573347131697 NAVSTAR 33 (USA 92) 1 22700U 93042A 10246.25427828 -.00000051 00000-0 10000-3 0 9621 2 22700 056.2342 018.7166 0169052 088.7536 273.1966 02.00560405125862 NAVSTAR 35 (USA 96) 1 22877U 93068A 10245.39539008 .00000037 00000-0 10000-3 0 3090 2 22877 053.7919 200.3283 0091703 035.1797 325.4010 02.00555627123498 NAVSTAR 36 (USA 100) 1 23027U 94016A 10245.59783130 -.00000004 +00000-0 +10000-3 0 02826 2 23027 053.5570 137.2848 0064045 302.9105 056.5351 02.00565184120800 NAVSTAR 37 (USA 117) 1 23833U 96019A 10245.61644621 -.00000003 00000-0 10000-3 0 4708 2 23833 053.1465 133.1978 0133987 058.4412 302.9410 02.00571431105785 NAVSTAR 38 (USA 126) 1 23953U 96041A 10244.99511089 +.00000051 +00000-0 +10000-3 0 09681 2 23953 054.5582 261.5298 0091306 036.9797 323.6903 02.00582619103560 NAVSTAR 39 (USA 128) 1 24320U 96056A 10245.89065634 .00000023 00000-0 10000-3 0 6907 2 24320 054.8400 077.7128 0123631 086.5479 274.9383 02.00560278102246 NAVSTAR 43 (USA 132) 1 24876U 97035A 10245.48395680 -.00000061 00000-0 10000-3 0 4421 2 24876 056.8452 324.3800 0041890 103.9164 256.6107 02.00559092 96100 NAVSTAR 44 (USA 134) 1 25030U 97067A 10245.61716738 -.00000039 00000-0 10000-3 0 3665 2 25030 056.9463 024.4999 0112723 180.6582 179.3457 02.00564438 94009 NAVSTAR 46 (USA 145) 1 25933U 99055A 10245.76250429 .00000013 00000-0 10000-3 0 8860 2 25933 050.8948 186.4915 0108559 047.1565 313.7378 02.00552307 79921 NAVSTAR 47 (USA 150) 1 26360U 00025A 10245.85102112 .00000053 00000-0 10000-3 0 9819 2 26360 053.6350 258.3154 0038899 074.3481 286.1238 02.00577914 75628 NAVSTAR 48 (USA 151) 1 26407U 00040A 10245.69360642 .00000025 00000-0 10000-3 0 9273 2 26407 055.6566 082.3149 0162540 249.0776 109.2456 02.00563073 74299 NAVSTAR 49 (USA 154) 1 26605U 00071A 10245.30188650 -.00000060 00000-0 10000-3 0 9407 2 26605 056.4571 323.1046 0057499 239.2104 120.2821 02.00577088 71880 NAVSTAR 50 (USA 156) 1 26690U 01004A 10246.16027537 .00000050 00000-0 10000-3 0 8204 2 26690 053.6372 261.3931 0119653 228.8425 130.1632 02.00558036 70318 NAVSTAR 51 (USA 166) 1 27663U 03005A 10245.52036578 .00000024 00000-0 10000-3 0 2195 2 27663 055.7596 081.8910 0061510 350.0624 009.8848 02.00567744 55656 NAVSTAR 52 (USA 168) 1 27704U 03010A 10246.08049476 .00000031 00000-0 10000-3 0 1108 2 27704 053.4192 200.8788 0170099 220.5598 138.1474 02.00566389 54451 NAVSTAR 53 (USA 175) 1 28129U 03058A 10246.20382391 .00000049 00000-0 10000-3 0 7073 2 28129 053.5053 261.6572 0057698 249.5621 109.8634 02.00557976 49160 NAVSTAR 54 (USA 177) 1 28190U 04009A 10245.66040554 -.00000005 00000-0 10000-3 0 6756 2 28190 054.8927 144.7842 0067049 353.5723 006.3900 02.00551586 47327 NAVSTAR 55 (USA 178) 1 28361U 04023A 10245.44575828 -.00000057 00000-0 10000-3 0 4941 2 28361 055.4099 320.7606 0069871 178.6820 181.3980 02.00565988 45407 NAVSTAR 56 (USA 180) 1 28474U 04045A 10245.93674963 .00000031 00000-0 10000-3 0 3731 2 28474 053.8405 199.2884 0095233 180.5663 179.4065 02.00568963 42775 NAVSTAR 57 (USA 183) 1 28874U 05038A 10245.28976148 -.00000003 +00000-0 +10000-3 0 06447 2 28874 055.0314 141.6574 0055023 219.5140 140.1383 02.00566461036182 NAVSTAR 58 (USA 190) 1 29486U 06042A 10245.40338976 -.00000047 00000-0 10000-3 0 9663 2 29486 056.0288 020.5016 0074950 298.8641 060.3972 02.00555689 28880 NAVSTAR 59 (USA 192) 1 29601U 06052A 10245.84838039 .00000026 00000-0 10000-3 0 168 2 29601 055.6908 080.8710 0032650 356.1312 003.8422 02.00568955 27800 NAVSTAR 60 (USA 196) 1 32260U 07047A 10246.15534239 -.00000055 00000-0 00000+0 0 7444 2 32260 054.5948 319.2190 0025659 345.9530 014.0371 02.00549156 21204 NAVSTAR 61 (USA 199) 1 32384U 07062A 10245.97667353 -.00000004 00000-0 10000-3 0 7653 2 32384 055.0451 142.1081 0032148 284.4953 075.2080 02.00561816 19924 NAVSTAR 62 (USA 201) 1 32711U 08012A 10245.57292746 -.00000048 00000-0 10000-3 0 6106 2 32711 055.7253 020.4930 0039301 179.1901 180.8326 02.00561077 18123 NAVSTAR 63 (USA 203) 1 34661U 09014A 10246.49405496 .00000029 00000-0 10000-3 0 5427 2 34661 055.3438 079.9898 0043120 053.0910 307.3656 02.00570197 10651 NAVSTAR 64 (USA 206) 1 35752U 09043A 10246.03922056 .00000055 00000-0 10000-3 0 2894 2 35752 054.8435 260.0412 0018923 003.5639 356.5036 02.00552568 7713